Time,TemperatureF,DewpointF,PressureIn,WindDirection,WindDirectionDegrees,WindSpeedMPH,WindSpeedGustMPH,Humidity,HourlyPrecipIn,Conditions,Clouds,dailyrainin,SolarRadiationWatts/m^2,SoftwareType,DateUTC
2013-09-04 00:02:00,73.8,57.6,29.95,NE,37,0.0,0.0,57,0.00,,CLR,0.00,0.00,VWS V14.01,2013-09-04 05:02:00,
2013-09-04 00:07:00,73.7,58.0,29.95,NE,37,0.0,0.0,58,0.00,,CLR,0.00,0.00,VWS V14.01,2013-09-04 05:07:00,
2013-09-04 00:12:00,73.7,58.0,29.95,NE,37,0.0,0.0,58,0.00,,CLR,0.00,0.00,VWS V14.01,2013-09-04 05:12:00,
2013-09-04 00:17:00,73.5,57.8,29.95,NE,37,0.0,0.0,58,0.00,,CLR,0.00,0.00,VWS V14.01,2013-09-04 05:17:00,
2013-09-04 00:22:00,73.5,57.8,29.95,NE,37,0.0,0.0,58,0.00,,CLR,0.00,0.00,VWS V14.01,2013-09-04 05:22:00,
2013-09-04 00:27:00,73.5,58.3,29.95,NE,37,0.0,0.0,59,0.00,,CLR,0.00,0.00,VWS V14.01,2013-09-04 05:27:00,
2013-09-04 00:32:00,73.5,58.3,29.95,NE,37,0.0,0.0,59,0.00,,CLR,0.00,0.00,VWS V14.01,2013-09-04 05:32:00,
2013-09-04 00:37:00,73.3,58.1,29.95,NE,37,0.0,0.0,59,0.00,,CLR,0.00,0.00,VWS V14.01,2013-09-04 05:37:00,
2013-09-04 00:42:00,73.3,58.1,29.95,NE,37,0.0,0.0,59,0.00,,CLR,0.00,0.00,VWS V14.01,2013-09-04 05:42:00,
2013-09-04 00:47:00,73.1,57.9,29.95,NE,37,0.0,0.0,59,0.00,,CLR,0.00,0.00,VWS V14.01,2013-09-04 05:47:00,
2013-09-04 00:52:00,73.1,57.9,29.95,NE,37,0.0,0.0,59,0.00,,CLR,0.00,0.00,VWS V14.01,2013-09-04 05:52:00,
2013-09-04 00:57:00,73.0,58.3,29.95,NE,37,0.0,0.0,60,0.00,,CLR,0.00,0.00,VWS V14.01,2013-09-04 05:57:00,
2013-09-04 01:02:00,73.0,58.3,29.95,NE,37,0.0,0.0,60,0.00,,CLR,0.00,0.00,VWS V14.01,2013-09-04 06:02:00,
2013-09-04 01:07:00,72.8,58.1,29.95,NE,37,0.0,0.0,60,0.00,,CLR,0.00,0.00,VWS V14.01,2013-09-04 06:07:00,
2013-09-04 01:12:00,72.6,57.9,29.95,NE,37,0.0,0.0,60,0.00,,CLR,0.00,0.00,VWS V14.01,2013-09-04 06:12:00,
2013-09-04 01:17:00,72.5,58.3,29.95,NE,37,0.0,0.0,61,0.00,,CLR,0.00,0.00,VWS V14.01,2013-09-04 06:17:00,
2013-09-04 01:22:00,72.5,58.3,29.95,NE,37,0.0,0.0,61,0.00,,CLR,0.00,0.00,VWS V14.01,2013-09-04 06:22:00,
2013-09-04 01:27:00,72.3,58.6,29.95,NE,37,0.0,0.0,62,0.00,,CLR,0.00,0.00,VWS V14.01,2013-09-04 06:27:00,
2013-09-04 01:32:00,72.1,58.8,29.95,NE,37,0.0,0.0,63,0.00,,CLR,0.00,0.00,VWS V14.01,2013-09-04 06:32:00,
2013-09-04 01:37:00,71.8,58.5,29.95,NE,37,0.0,0.0,63,0.00,,CLR,0.00,0.00,VWS V14.01,2013-09-04 06:37:00,
2013-09-04 01:42:00,71.6,58.3,29.95,NE,37,0.0,0.0,63,0.00,,CLR,0.00,0.00,VWS V14.01,2013-09-04 06:42:00,
2013-09-04 01:47:00,71.4,58.6,29.95,NE,37,0.0,0.0,64,0.00,,CLR,0.00,0.00,VWS V14.01,2013-09-04 06:47:00,
2013-09-04 01:52:00,71.3,58.5,29.95,NE,37,0.0,0.0,64,0.00,,CLR,0.00,0.00,VWS V14.01,2013-09-04 06:52:00,
2013-09-04 01:57:00,71.1,58.8,29.95,NE,37,0.0,0.0,65,0.00,,CLR,0.00,0.00,VWS V14.01,2013-09-04 06:57:00,
2013-09-04 02:02:00,70.9,58.6,29.95,NE,37,0.0,0.0,65,0.00,,CLR,0.00,0.00,VWS V14.01,2013-09-04 07:02:00,
2013-09-04 02:07:00,70.7,58.8,29.95,NE,37,0.0,0.0,66,0.00,,CLR,0.00,0.00,VWS V14.01,2013-09-04 07:07:00,
2013-09-04 02:12:00,70.7,58.8,29.95,NE,37,0.0,0.0,66,0.00,,CLR,0.00,0.00,VWS V14.01,2013-09-04 07:12:00,
2013-09-04 02:17:00,70.6,58.7,29.95,NE,37,0.0,0.0,66,0.00,,CLR,0.00,0.00,VWS V14.01,2013-09-04 07:17:00,
2013-09-04 02:22:00,70.6,59.1,29.95,NE,37,0.0,0.0,67,0.00,,CLR,0.00,0.00,VWS V14.01,2013-09-04 07:22:00,
2013-09-04 02:27:00,70.4,58.9,29.95,NE,37,0.0,0.0,67,0.00,,CLR,0.00,0.00,VWS V14.01,2013-09-04 07:27:00,
2013-09-04 02:32:00,70.4,59.3,29.94,NE,37,0.0,0.0,68,0.00,,CLR,0.00,0.00,VWS V14.01,2013-09-04 07:32:00,
2013-09-04 02:37:00,70.2,59.2,29.94,NE,37,0.0,0.0,68,0.00,,CLR,0.00,0.00,VWS V14.01,2013-09-04 07:37:00,
2013-09-04 02:42:00,70.2,59.2,29.94,NE,37,0.0,0.0,68,0.00,,CLR,0.00,0.00,VWS V14.01,2013-09-04 07:42:00,
2013-09-04 02:47:00,70.2,59.2,29.95,NE,37,0.0,0.0,68,0.00,,CLR,0.00,0.00,VWS V14.01,2013-09-04 07:47:00,
2013-09-04 02:52:00,70.2,59.2,29.95,NE,37,0.0,0.0,68,0.00,,CLR,0.00,0.00,VWS V14.01,2013-09-04 07:52:00,
2013-09-04 02:57:00,70.2,59.2,29.95,NE,37,0.0,0.0,68,0.00,,CLR,0.00,0.00,VWS V14.01,2013-09-04 07:57:00,
2013-09-04 03:02:00,70.4,59.3,29.95,NE,37,0.0,0.0,68,0.00,,CLR,0.00,0.00,VWS V14.01,2013-09-04 08:02:00,
2013-09-04 03:07:00,70.2,59.2,29.95,NE,37,0.0,0.0,68,0.00,,CLR,0.00,0.00,VWS V14.01,2013-09-04 08:07:00,
2013-09-04 03:12:00,70.2,59.2,29.95,NE,37,0.0,0.0,68,0.00,,CLR,0.00,0.00,VWS V14.01,2013-09-04 08:12:00,
2013-09-04 03:17:00,70.2,59.6,29.95,NE,37,0.0,0.0,69,0.00,,CLR,0.00,0.00,VWS V14.01,2013-09-04 08:17:00,
2013-09-04 03:22:00,70.2,59.6,29.95,NE,37,0.0,0.0,69,0.00,,CLR,0.00,0.00,VWS V14.01,2013-09-04 08:22:00,
2013-09-04 03:27:00,70.1,59.5,29.95,NE,37,0.0,0.0,69,0.00,,CLR,0.00,0.00,VWS V14.01,2013-09-04 08:27:00,
2013-09-04 03:32:00,70.1,59.5,29.95,NE,37,0.0,0.0,69,0.00,,CLR,0.00,0.00,VWS V14.01,2013-09-04 08:32:00,
2013-09-04 03:37:00,70.1,59.5,29.95,NE,37,0.0,0.0,69,0.00,,CLR,0.00,0.00,VWS V14.01,2013-09-04 08:37:00,
2013-09-04 03:42:00,69.9,59.3,29.95,NE,37,0.0,0.0,69,0.00,,CLR,0.00,0.00,VWS V14.01,2013-09-04 08:42:00,
2013-09-04 03:47:00,69.7,59.1,29.95,NE,37,0.0,0.0,69,0.00,,CLR,0.00,0.00,VWS V14.01,2013-09-04 08:47:00,
2013-09-04 03:51:00,69.7,59.1,29.95,NE,37,0.0,0.0,69,0.00,,CLR,0.00,0.00,VWS V14.01,2013-09-04 08:51:00,
2013-09-04 03:56:00,69.6,59.4,29.95,NE,37,0.0,0.0,70,0.00,,CLR,0.00,0.00,VWS V14.01,2013-09-04 08:56:00,
2013-09-04 04:01:00,69.4,59.2,29.95,NE,37,0.0,0.0,70,0.00,,CLR,0.00,0.00,VWS V14.01,2013-09-04 09:01:00,
2013-09-04 04:06:00,69.4,59.2,29.95,NE,37,0.0,0.0,70,0.00,,CLR,0.00,0.00,VWS V14.01,2013-09-04 09:06:00,
2013-09-04 04:11:00,69.2,59.0,29.95,NE,37,0.0,0.0,70,0.00,,CLR,0.00,0.00,VWS V14.01,2013-09-04 09:11:00,
2013-09-04 04:16:00,69.1,58.9,29.95,NE,37,0.0,0.0,70,0.00,,CLR,0.00,0.00,VWS V14.01,2013-09-04 09:16:00,
2013-09-04 04:21:00,68.9,58.7,29.95,NE,37,0.0,0.0,70,0.00,,CLR,0.00,0.00,VWS V14.01,2013-09-04 09:21:00,
2013-09-04 04:26:00,68.9,59.1,29.95,NE,37,0.0,0.0,71,0.00,,CLR,0.00,0.00,VWS V14.01,2013-09-04 09:26:00,
2013-09-04 04:31:00,68.7,58.9,29.95,NE,37,0.0,0.0,71,0.00,,CLR,0.00,0.00,VWS V14.01,2013-09-04 09:31:00,
2013-09-04 04:36:00,68.6,58.8,29.95,NE,37,0.0,0.0,71,0.00,,CLR,0.00,0.00,VWS V14.01,2013-09-04 09:36:00,
2013-09-04 04:41:00,68.4,59.0,29.95,NE,37,0.0,0.0,72,0.00,,CLR,0.00,0.00,VWS V14.01,2013-09-04 09:41:00,
2013-09-04 04:46:00,68.4,59.0,29.96,NE,37,0.0,0.0,72,0.00,,CLR,0.00,0.00,VWS V14.01,2013-09-04 09:46:00,
2013-09-04 04:51:00,68.2,58.8,29.96,NE,37,0.0,0.0,72,0.00,,CLR,0.00,0.00,VWS V14.01,2013-09-04 09:51:00,
2013-09-04 04:56:00,68.1,59.1,29.96,NE,37,0.0,0.0,73,0.00,,CLR,0.00,0.00,VWS V14.01,2013-09-04 09:56:00,
2013-09-04 05:01:00,68.1,59.1,29.96,NE,37,0.0,0.0,73,0.00,,CLR,0.00,0.00,VWS V14.01,2013-09-04 10:01:00,
2013-09-04 05:06:00,67.9,58.9,29.96,NE,37,0.0,0.0,73,0.00,,CLR,0.00,0.00,VWS V14.01,2013-09-04 10:06:00,
2013-09-04 05:11:00,67.7,58.7,29.96,NE,37,0.0,0.0,73,0.00,,CLR,0.00,0.00,VWS V14.01,2013-09-04 10:11:00,
2013-09-04 05:16:00,67.7,59.1,29.97,NE,37,0.0,0.0,74,0.00,,CLR,0.00,0.00,VWS V14.01,2013-09-04 10:16:00,
2013-09-04 05:21:00,67.6,59.0,29.97,NE,37,0.0,0.0,74,0.00,,CLR,0.00,0.00,VWS V14.01,2013-09-04 10:21:00,
2013-09-04 05:26:00,67.6,59.0,29.97,NE,37,0.0,0.0,74,0.00,,CLR,0.00,0.00,VWS V14.01,2013-09-04 10:26:00,
2013-09-04 05:31:00,67.4,59.2,29.97,NE,37,0.0,0.0,75,0.00,,CLR,0.00,0.00,VWS V14.01,2013-09-04 10:31:00,
2013-09-04 05:36:00,67.4,59.2,29.97,NE,37,0.0,0.0,75,0.00,,CLR,0.00,0.00,VWS V14.01,2013-09-04 10:36:00,
2013-09-04 05:41:00,67.2,59.0,29.97,NE,37,0.0,0.0,75,0.00,,CLR,0.00,0.00,VWS V14.01,2013-09-04 10:41:00,
2013-09-04 05:46:00,67.2,59.0,29.97,NE,37,0.0,0.0,75,0.00,,CLR,0.00,0.00,VWS V14.01,2013-09-04 10:46:00,
2013-09-04 05:51:00,67.1,58.9,29.97,NE,37,0.0,0.0,75,0.00,,CLR,0.00,0.00,VWS V14.01,2013-09-04 10:51:00,
2013-09-04 05:56:00,67.1,59.3,29.97,NE,37,0.0,0.0,76,0.00,,CLR,0.00,0.00,VWS V14.01,2013-09-04 10:56:00,
2013-09-04 06:01:00,66.9,59.1,29.98,NE,37,0.0,0.0,76,0.00,,CLR,0.00,0.00,VWS V14.01,2013-09-04 11:01:00,
2013-09-04 06:06:00,66.9,59.1,29.98,NE,37,0.0,0.0,76,0.00,,CLR,0.00,0.00,VWS V14.01,2013-09-04 11:06:00,
2013-09-04 06:11:00,66.7,58.9,29.98,NE,37,0.0,0.0,76,0.00,,CLR,0.00,0.00,VWS V14.01,2013-09-04 11:11:00,
2013-09-04 06:16:00,66.7,58.9,29.98,NE,37,0.0,0.0,76,0.00,,CLR,0.00,0.00,VWS V14.01,2013-09-04 11:16:00,
2013-09-04 06:21:00,66.7,58.9,29.98,NE,37,0.0,0.0,76,0.00,,CLR,0.00,0.00,VWS V14.01,2013-09-04 11:21:00,
2013-09-04 06:26:00,66.6,59.2,29.98,NE,37,0.0,0.0,77,0.00,,CLR,0.00,0.00,VWS V14.01,2013-09-04 11:26:00,
2013-09-04 06:31:00,66.6,59.2,29.98,NE,37,0.0,0.0,77,0.00,,CLR,0.00,0.00,VWS V14.01,2013-09-04 11:31:00,
2013-09-04 06:36:00,66.4,59.0,29.98,NE,37,0.0,0.0,77,0.00,,CLR,0.00,0.00,VWS V14.01,2013-09-04 11:36:00,
2013-09-04 06:41:00,66.4,59.0,29.98,NE,37,0.0,0.0,77,0.00,,CLR,0.00,0.00,VWS V14.01,2013-09-04 11:41:00,
2013-09-04 06:46:00,66.2,58.8,29.99,NE,37,0.0,0.0,77,0.00,,CLR,0.00,0.00,VWS V14.01,2013-09-04 11:46:00,
2013-09-04 06:51:00,66.2,58.8,29.99,NE,37,0.0,0.0,77,0.00,,CLR,0.00,0.00,VWS V14.01,2013-09-04 11:51:00,
2013-09-04 06:56:00,66.1,58.7,29.99,NE,37,0.0,0.0,77,0.00,,CLR,0.00,0.00,VWS V14.01,2013-09-04 11:56:00,
2013-09-04 07:01:00,66.1,58.7,29.99,NE,37,0.0,0.0,77,0.00,,CLR,0.00,5.75,VWS V14.01,2013-09-04 12:01:00,
2013-09-04 07:06:00,66.1,58.7,29.99,NE,37,0.0,0.0,77,0.00,,CLR,0.00,10.35,VWS V14.01,2013-09-04 12:06:00,
2013-09-04 07:11:00,65.9,58.5,29.99,NE,37,0.0,0.0,77,0.00,,CLR,0.00,12.65,VWS V14.01,2013-09-04 12:11:00,
2013-09-04 07:16:00,65.9,58.5,30.00,NE,37,0.0,0.0,77,0.00,,CLR,0.00,13.80,VWS V14.01,2013-09-04 12:16:00,
2013-09-04 07:21:00,65.8,58.8,30.00,NE,37,0.0,0.0,78,0.00,,CLR,0.00,16.10,VWS V14.01,2013-09-04 12:21:00,
2013-09-04 07:26:00,65.8,58.8,30.00,NE,37,0.0,0.0,78,0.00,,CLR,0.00,18.40,VWS V14.01,2013-09-04 12:26:00,
2013-09-04 07:31:00,65.9,59.2,30.00,NE,37,0.0,0.0,79,0.00,,CLR,0.00,21.85,VWS V14.01,2013-09-04 12:31:00,
2013-09-04 07:36:00,65.9,59.2,30.00,NE,37,0.0,0.0,79,0.00,,CLR,0.00,29.90,VWS V14.01,2013-09-04 12:36:00,
2013-09-04 07:41:00,65.9,59.2,30.00,NE,37,0.0,0.0,79,0.00,,CLR,0.00,36.80,VWS V14.01,2013-09-04 12:41:00,
2013-09-04 07:46:00,65.9,59.2,30.01,NE,37,0.0,0.0,79,0.00,,CLR,0.00,42.55,VWS V14.01,2013-09-04 12:46:00,
2013-09-04 07:51:00,66.1,59.8,30.01,NE,37,0.0,0.0,80,0.00,,CLR,0.00,120.75,VWS V14.01,2013-09-04 12:51:00,
2013-09-04 07:56:00,67.9,61.5,30.01,NE,37,0.0,0.0,80,0.00,,CLR,0.00,151.80,VWS V14.01,2013-09-04 12:56:00,
2013-09-04 08:01:00,69.2,61.7,30.02,NE,37,0.0,0.0,77,0.00,,CLR,0.00,167.90,VWS V14.01,2013-09-04 13:01:00,
2013-09-04 08:06:00,70.1,61.8,30.02,NE,37,0.0,0.0,75,0.00,,CLR,0.00,186.30,VWS V14.01,2013-09-04 13:06:00,
2013-09-04 08:11:00,70.6,61.9,30.02,NNE,26,0.0,0.0,74,0.00,,CLR,0.00,202.40,VWS V14.01,2013-09-04 13:11:00,
2013-09-04 08:16:00,70.9,61.4,30.02,NNE,26,0.0,0.0,72,0.00,,CLR,0.00,220.80,VWS V14.01,2013-09-04 13:16:00,
2013-09-04 08:21:00,70.9,61.4,30.02,NNE,26,0.0,0.0,72,0.00,,CLR,0.00,234.60,VWS V14.01,2013-09-04 13:21:00,
2013-09-04 08:26:00,71.1,61.6,30.02,NNE,26,0.0,0.0,72,0.00,,CLR,0.00,248.40,VWS V14.01,2013-09-04 13:26:00,
2013-09-04 08:31:00,71.8,61.9,30.02,NNE,26,0.0,0.0,71,0.00,,CLR,0.00,269.10,VWS V14.01,2013-09-04 13:31:00,
2013-09-04 08:36:00,72.5,62.2,30.02,NNE,26,0.0,0.0,70,0.00,,CLR,0.00,285.20,VWS V14.01,2013-09-04 13:36:00,
2013-09-04 08:41:00,73.5,62.7,30.02,NNE,26,0.0,0.0,69,0.00,,CLR,0.00,307.05,VWS V14.01,2013-09-04 13:41:00,
2013-09-04 08:46:00,74.2,62.5,30.03,NNE,26,0.0,0.0,67,0.00,,CLR,0.00,325.45,VWS V14.01,2013-09-04 13:46:00,
2013-09-04 08:51:00,74.9,62.8,30.03,NNE,30,0.0,3.0,66,0.00,,CLR,0.00,343.85,VWS V14.01,2013-09-04 13:51:00,
2013-09-04 08:56:00,75.1,62.5,30.03,NNE,30,0.0,3.0,65,0.00,,CLR,0.00,357.65,VWS V14.01,2013-09-04 13:56:00,
2013-09-04 09:01:00,75.6,62.6,30.03,NNE,32,0.0,0.0,64,0.00,,CLR,0.00,376.05,VWS V14.01,2013-09-04 14:01:00,
2013-09-04 09:06:00,76.1,63.0,30.03,NE,52,0.0,5.0,64,0.00,,CLR,0.00,394.45,VWS V14.01,2013-09-04 14:06:00,
2013-09-04 09:11:00,76.6,63.1,30.03,SE,126,0.0,5.0,63,0.00,,CLR,0.00,412.85,VWS V14.01,2013-09-04 14:11:00,
2013-09-04 09:16:00,77.2,62.7,30.03,SSE,161,0.0,6.0,61,0.00,,CLR,0.00,428.95,VWS V14.01,2013-09-04 14:16:00,
2013-09-04 09:21:00,77.9,63.4,30.03,SSE,165,0.0,1.0,61,0.00,,CLR,0.00,446.20,VWS V14.01,2013-09-04 14:21:00,
2013-09-04 09:26:00,78.4,63.4,30.03,SSE,166,0.0,5.0,60,0.00,,CLR,0.00,458.85,VWS V14.01,2013-09-04 14:26:00,
2013-09-04 09:31:00,78.4,62.9,30.03,SSE,164,5.0,5.0,59,0.00,,CLR,0.00,479.55,VWS V14.01,2013-09-04 14:31:00,
2013-09-04 09:36:00,79.0,63.5,30.03,SSE,163,3.0,5.0,59,0.00,,CLR,0.00,495.65,VWS V14.01,2013-09-04 14:36:00,
2013-09-04 09:41:00,79.4,63.8,30.03,SSE,162,0.0,3.0,59,0.00,,CLR,0.00,511.75,VWS V14.01,2013-09-04 14:41:00,
2013-09-04 09:46:00,79.7,63.1,30.04,SSE,161,4.0,5.0,57,0.00,,CLR,0.00,527.85,VWS V14.01,2013-09-04 14:46:00,
2013-09-04 09:51:00,79.6,63.5,30.04,SSE,161,0.0,0.0,58,0.00,,CLR,0.00,543.95,VWS V14.01,2013-09-04 14:51:00,
2013-09-04 09:56:00,80.5,63.4,30.04,South,184,0.0,6.0,56,0.00,,CLR,0.00,555.45,VWS V14.01,2013-09-04 14:56:00,
2013-09-04 10:01:00,80.9,63.8,30.04,South,182,0.0,0.0,56,0.00,,CLR,0.00,573.85,VWS V14.01,2013-09-04 15:01:00,
2013-09-04 10:06:00,81.0,63.8,30.04,South,182,0.0,1.0,56,0.00,,CLR,0.00,589.95,VWS V14.01,2013-09-04 15:06:00,
2013-09-04 10:11:00,81.6,63.9,30.04,South,182,0.0,0.0,55,0.00,,CLR,0.00,604.90,VWS V14.01,2013-09-04 15:11:00,
2013-09-04 10:16:00,81.6,63.9,30.05,South,173,0.0,7.0,55,0.00,,CLR,0.00,618.70,VWS V14.01,2013-09-04 15:16:00,
2013-09-04 10:21:00,82.0,64.3,30.05,South,173,0.0,0.0,55,0.00,,CLR,0.00,634.80,VWS V14.01,2013-09-04 15:21:00,
2013-09-04 10:26:00,82.0,64.3,30.05,SSW,207,0.0,6.0,55,0.00,,CLR,0.00,648.60,VWS V14.01,2013-09-04 15:26:00,
2013-09-04 10:31:00,82.6,64.3,30.05,SSW,202,0.0,5.0,54,0.00,,CLR,0.00,664.70,VWS V14.01,2013-09-04 15:31:00,
2013-09-04 10:36:00,83.2,64.8,30.05,SSW,200,0.0,5.0,54,0.00,,CLR,0.00,675.05,VWS V14.01,2013-09-04 15:36:00,
2013-09-04 10:41:00,83.9,64.9,30.05,SSW,198,1.0,1.0,53,0.00,,CLR,0.00,688.85,VWS V14.01,2013-09-04 15:41:00,
2013-09-04 10:46:00,84.1,65.1,30.05,SSW,198,0.0,1.0,53,0.00,,CLR,0.00,704.95,VWS V14.01,2013-09-04 15:46:00,
2013-09-04 10:51:00,84.5,64.4,30.05,SSW,198,0.0,1.0,51,0.00,,CLR,0.00,719.90,VWS V14.01,2013-09-04 15:51:00,
2013-09-04 10:56:00,84.9,64.8,30.05,SSW,196,0.0,5.0,51,0.00,,CLR,0.00,730.25,VWS V14.01,2013-09-04 15:56:00,
2013-09-04 11:01:00,84.9,64.8,30.05,SSW,195,0.0,1.0,51,0.00,,CLR,0.00,739.45,VWS V14.01,2013-09-04 16:01:00,
2013-09-04 11:06:00,85.3,64.0,30.05,SSW,195,0.0,5.0,49,0.00,,CLR,0.00,754.40,VWS V14.01,2013-09-04 16:06:00,
2013-09-04 11:11:00,85.9,65.1,30.05,SSW,195,0.0,0.0,50,0.00,,CLR,0.00,763.60,VWS V14.01,2013-09-04 16:11:00,
2013-09-04 11:16:00,86.3,64.3,30.04,SSW,195,0.0,0.0,48,0.00,,CLR,0.00,773.95,VWS V14.01,2013-09-04 16:16:00,
2013-09-04 11:21:00,86.5,64.5,30.04,SSW,195,4.0,6.0,48,0.00,,CLR,0.00,782.00,VWS V14.01,2013-09-04 16:21:00,
2013-09-04 11:26:00,86.5,63.9,30.04,SSW,200,0.0,6.0,47,0.00,,CLR,0.00,794.65,VWS V14.01,2013-09-04 16:26:00,
2013-09-04 11:31:00,86.8,64.2,30.04,SSW,200,0.0,4.0,47,0.00,,CLR,0.00,802.70,VWS V14.01,2013-09-04 16:31:00,
2013-09-04 11:36:00,87.0,66.1,30.04,SSW,196,0.0,4.0,50,0.00,,CLR,0.00,810.75,VWS V14.01,2013-09-04 16:36:00,
2013-09-04 11:41:00,86.8,65.4,30.04,SSE,149,4.0,6.0,49,0.00,,CLR,0.00,816.50,VWS V14.01,2013-09-04 16:41:00,
2013-09-04 11:46:00,87.6,65.5,30.04,SSE,149,0.0,6.0,48,0.00,,CLR,0.00,824.55,VWS V14.01,2013-09-04 16:46:00,
2013-09-04 11:51:00,87.2,64.5,30.04,SSE,157,0.0,0.0,47,0.00,,CLR,0.00,832.60,VWS V14.01,2013-09-04 16:51:00,
2013-09-04 11:56:00,86.8,64.8,30.04,SSE,158,0.0,6.0,48,0.00,,CLR,0.00,837.20,VWS V14.01,2013-09-04 16:56:00,
2013-09-04 12:01:00,87.0,65.0,30.04,SSE,165,0.0,0.0,48,0.00,,CLR,0.00,845.25,VWS V14.01,2013-09-04 17:01:00,
2013-09-04 12:06:00,86.8,65.9,30.04,SSE,163,0.0,6.0,50,0.00,,CLR,0.00,853.30,VWS V14.01,2013-09-04 17:06:00,
2013-09-04 12:11:00,87.2,65.1,30.04,South,178,0.0,1.0,48,0.00,,CLR,0.00,859.05,VWS V14.01,2013-09-04 17:11:00,
2013-09-04 12:16:00,88.4,66.2,30.03,SSW,198,0.0,9.0,48,0.00,,CLR,0.00,863.65,VWS V14.01,2013-09-04 17:16:00,
2013-09-04 12:21:00,88.6,65.8,30.03,SSW,196,0.0,2.0,47,0.00,,CLR,0.00,872.85,VWS V14.01,2013-09-04 17:21:00,
2013-09-04 12:26:00,88.4,65.6,30.03,SSW,192,0.0,7.0,47,0.00,,CLR,0.00,879.75,VWS V14.01,2013-09-04 17:26:00,
2013-09-04 12:31:00,88.8,64.7,30.03,SSW,192,0.0,0.0,45,0.00,,CLR,0.00,880.90,VWS V14.01,2013-09-04 17:31:00,
2013-09-04 12:36:00,88.6,66.4,30.03,South,176,0.0,5.0,48,0.00,,CLR,0.00,888.95,VWS V14.01,2013-09-04 17:36:00,
2013-09-04 12:41:00,88.4,67.4,30.03,South,171,0.0,0.0,50,0.00,,CLR,0.00,893.55,VWS V14.01,2013-09-04 17:41:00,
2013-09-04 12:46:00,87.8,65.7,30.03,South,171,0.0,0.0,48,0.00,,CLR,0.00,893.55,VWS V14.01,2013-09-04 17:46:00,
2013-09-04 12:51:00,87.4,65.9,30.03,South,171,0.0,0.0,49,0.00,,CLR,0.00,893.55,VWS V14.01,2013-09-04 17:51:00,
2013-09-04 12:56:00,89.3,66.4,30.03,South,171,0.0,4.0,47,0.00,,CLR,0.00,901.60,VWS V14.01,2013-09-04 17:56:00,
2013-09-04 13:01:00,89.9,65.1,30.02,South,171,0.0,6.0,44,0.00,,CLR,0.00,909.65,VWS V14.01,2013-09-04 18:01:00,
2013-09-04 13:06:00,90.8,65.2,30.02,South,178,0.0,8.0,43,0.00,,CLR,0.00,930.35,VWS V14.01,2013-09-04 18:06:00,
2013-09-04 13:11:00,89.9,66.4,30.02,South,179,2.0,2.0,46,0.00,,CLR,0.00,917.70,VWS V14.01,2013-09-04 18:11:00,
2013-09-04 13:16:00,89.5,66.0,30.01,South,182,0.0,3.0,46,0.00,,CLR,0.00,928.05,VWS V14.01,2013-09-04 18:16:00,
2013-09-04 13:21:00,90.3,65.4,30.01,South,182,0.0,0.0,44,0.00,,CLR,0.00,938.40,VWS V14.01,2013-09-04 18:21:00,
2013-09-04 13:26:00,90.5,65.0,30.01,South,181,0.0,3.0,43,0.00,,CLR,0.00,909.65,VWS V14.01,2013-09-04 18:26:00,
2013-09-04 13:31:00,91.6,66.0,30.01,South,175,0.0,2.0,43,0.00,,CLR,0.00,989.00,VWS V14.01,2013-09-04 18:31:00,
2013-09-04 13:36:00,91.2,65.6,30.01,South,175,0.0,2.0,43,0.00,,CLR,0.00,1010.85,VWS V14.01,2013-09-04 18:36:00,
2013-09-04 13:41:00,91.0,64.1,30.01,South,169,0.0,0.0,41,0.00,,CLR,0.00,954.50,VWS V14.01,2013-09-04 18:41:00,
2013-09-04 13:46:00,89.9,64.4,30.01,East,96,0.0,6.0,43,0.00,,CLR,0.00,930.35,VWS V14.01,2013-09-04 18:46:00,
2013-09-04 13:51:00,91.2,64.2,30.01,SE,144,0.0,2.0,41,0.00,,CLR,0.00,978.65,VWS V14.01,2013-09-04 18:51:00,
2013-09-04 13:56:00,90.8,63.9,30.01,SE,143,0.0,2.0,41,0.00,,CLR,0.00,982.10,VWS V14.01,2013-09-04 18:56:00,
2013-09-04 14:01:00,91.2,62.8,30.01,SE,143,0.0,0.0,39,0.00,,CLR,0.00,966.00,VWS V14.01,2013-09-04 19:01:00,
2013-09-04 14:06:00,90.5,62.9,30.01,SE,141,0.0,2.0,40,0.00,,CLR,0.00,960.25,VWS V14.01,2013-09-04 19:06:00,
2013-09-04 14:11:00,90.8,61.7,30.01,SE,141,0.0,0.0,38,0.00,,CLR,0.00,947.60,VWS V14.01,2013-09-04 19:11:00,
2013-09-04 14:16:00,91.2,62.8,30.01,SSE,149,1.0,5.0,39,0.00,,CLR,0.00,974.05,VWS V14.01,2013-09-04 19:16:00,
2013-09-04 14:21:00,92.7,61.1,30.01,South,178,3.0,5.0,35,0.00,,CLR,0.00,974.05,VWS V14.01,2013-09-04 19:21:00,
2013-09-04 14:26:00,92.7,61.9,30.01,South,175,1.0,5.0,36,0.00,,CLR,0.00,986.70,VWS V14.01,2013-09-04 19:26:00,
2013-09-04 14:31:00,92.3,62.3,30.00,South,169,0.0,1.0,37,0.00,,CLR,0.00,1014.30,VWS V14.01,2013-09-04 19:31:00,
2013-09-04 14:36:00,92.1,62.1,30.00,SSE,168,1.0,1.0,37,0.00,,CLR,0.00,990.15,VWS V14.01,2013-09-04 19:36:00,
2013-09-04 14:41:00,91.9,61.9,30.00,ESE,122,0.0,6.0,37,0.00,,CLR,0.00,236.90,VWS V14.01,2013-09-04 19:41:00,
2013-09-04 14:46:00,90.8,60.2,30.00,ESE,122,0.0,6.0,36,0.00,,CLR,0.00,187.45,VWS V14.01,2013-09-04 19:46:00,
2013-09-04 14:51:00,90.5,61.5,30.00,ESE,123,0.0,0.0,38,0.00,,CLR,0.00,869.40,VWS V14.01,2013-09-04 19:51:00,
2013-09-04 14:56:00,91.2,61.3,30.00,ESE,123,0.0,0.0,37,0.00,,CLR,0.00,842.95,VWS V14.01,2013-09-04 19:56:00,
2013-09-04 15:01:00,91.6,61.7,29.99,ESE,120,1.0,1.0,37,0.00,,CLR,0.00,838.35,VWS V14.01,2013-09-04 20:01:00,
2013-09-04 15:06:00,91.6,60.9,29.99,ESE,119,0.0,1.0,36,0.00,,CLR,0.00,802.70,VWS V14.01,2013-09-04 20:06:00,
2013-09-04 15:11:00,91.9,58.7,29.99,ESE,119,0.0,0.0,33,0.00,,CLR,0.00,717.60,VWS V14.01,2013-09-04 20:11:00,
2013-09-04 15:16:00,92.5,60.1,29.98,SE,128,0.0,3.0,34,0.00,,CLR,0.00,826.85,VWS V14.01,2013-09-04 20:16:00,
2013-09-04 15:21:00,92.1,60.5,29.98,SE,133,0.0,2.0,35,0.00,,CLR,0.00,147.20,VWS V14.01,2013-09-04 20:21:00,
2013-09-04 15:26:00,91.2,61.3,29.98,SE,134,4.0,4.0,37,0.00,,CLR,0.00,806.15,VWS V14.01,2013-09-04 20:26:00,
2013-09-04 15:31:00,92.1,62.1,29.98,SE,135,0.0,0.0,37,0.00,,CLR,0.00,757.85,VWS V14.01,2013-09-04 20:31:00,
2013-09-04 15:36:00,92.3,61.5,29.98,SE,141,0.0,3.0,36,0.00,,CLR,0.00,749.80,VWS V14.01,2013-09-04 20:36:00,
2013-09-04 15:41:00,93.0,61.3,29.98,SE,140,0.0,0.0,35,0.00,,CLR,0.00,736.00,VWS V14.01,2013-09-04 20:41:00,
2013-09-04 15:46:00,91.4,62.2,29.98,SE,140,0.0,1.0,38,0.00,,CLR,0.00,719.90,VWS V14.01,2013-09-04 20:46:00,
2013-09-04 15:51:00,91.6,61.7,29.98,SE,142,3.0,4.0,37,0.00,,CLR,0.00,704.95,VWS V14.01,2013-09-04 20:51:00,
2013-09-04 15:56:00,93.0,60.5,29.98,SSE,154,0.0,4.0,34,0.00,,CLR,0.00,691.15,VWS V14.01,2013-09-04 20:56:00,
2013-09-04 16:01:00,93.2,61.5,29.97,SSE,161,6.0,7.0,35,0.00,,CLR,0.00,677.35,VWS V14.01,2013-09-04 21:01:00,
2013-09-04 16:06:00,92.7,61.1,29.97,SSE,162,0.0,7.0,35,0.00,,CLR,0.00,664.70,VWS V14.01,2013-09-04 21:06:00,
2013-09-04 16:11:00,92.5,60.9,29.97,SSE,163,0.0,0.0,35,0.00,,CLR,0.00,675.05,VWS V14.01,2013-09-04 21:11:00,
2013-09-04 16:16:00,93.0,62.1,29.97,SSE,165,0.0,3.0,36,0.00,,CLR,0.00,645.15,VWS V14.01,2013-09-04 21:16:00,
2013-09-04 16:21:00,92.3,60.7,29.97,SE,145,2.0,5.0,35,0.00,,CLR,0.00,604.90,VWS V14.01,2013-09-04 21:21:00,
2013-09-04 16:26:00,92.1,60.5,29.97,SE,145,0.0,5.0,35,0.00,,CLR,0.00,586.50,VWS V14.01,2013-09-04 21:26:00,
2013-09-04 16:31:00,92.5,60.9,29.96,SSE,152,0.0,2.0,35,0.00,,CLR,0.00,571.55,VWS V14.01,2013-09-04 21:31:00,
2013-09-04 16:36:00,93.0,61.3,29.96,SSW,200,0.0,5.0,35,0.00,,CLR,0.00,560.05,VWS V14.01,2013-09-04 21:36:00,
2013-09-04 16:41:00,93.0,61.3,29.96,SSW,200,0.0,1.0,35,0.00,,CLR,0.00,547.40,VWS V14.01,2013-09-04 21:41:00,
2013-09-04 16:46:00,92.3,59.9,29.95,SSW,199,0.0,1.0,34,0.00,,CLR,0.00,531.30,VWS V14.01,2013-09-04 21:46:00,
2013-09-04 16:51:00,91.6,60.1,29.95,SSE,167,0.0,0.0,35,0.00,,CLR,0.00,515.20,VWS V14.01,2013-09-04 21:51:00,
2013-09-04 16:56:00,91.0,59.6,29.95,SSE,167,0.0,0.0,35,0.00,,CLR,0.00,495.65,VWS V14.01,2013-09-04 21:56:00,
2013-09-04 17:01:00,90.8,60.2,29.95,SSE,167,0.0,0.0,36,0.00,,CLR,0.00,480.70,VWS V14.01,2013-09-04 22:01:00,
2013-09-04 17:06:00,91.2,59.8,29.95,SSE,167,0.0,0.0,35,0.00,,CLR,0.00,464.60,VWS V14.01,2013-09-04 22:06:00,
2013-09-04 17:11:00,92.1,60.5,29.95,SSE,167,0.0,0.0,35,0.00,,CLR,0.00,445.05,VWS V14.01,2013-09-04 22:11:00,
2013-09-04 17:16:00,92.3,59.1,29.95,SSE,167,0.0,5.0,33,0.00,,CLR,0.00,432.40,VWS V14.01,2013-09-04 22:16:00,
2013-09-04 17:21:00,92.3,59.1,29.95,SSE,167,0.0,0.0,33,0.00,,CLR,0.00,418.60,VWS V14.01,2013-09-04 22:21:00,
2013-09-04 17:26:00,92.3,59.1,29.95,SSE,167,0.0,3.0,33,0.00,,CLR,0.00,397.90,VWS V14.01,2013-09-04 22:26:00,
2013-09-04 17:31:00,92.5,59.2,29.95,SSE,167,1.0,6.0,33,0.00,,CLR,0.00,376.05,VWS V14.01,2013-09-04 22:31:00,
2013-09-04 17:36:00,92.5,58.4,29.95,SSE,165,0.0,6.0,32,0.00,,CLR,0.00,354.20,VWS V14.01,2013-09-04 22:36:00,
2013-09-04 17:41:00,92.3,57.3,29.95,SSE,164,0.0,0.0,31,0.00,,CLR,0.00,339.25,VWS V14.01,2013-09-04 22:41:00,
2013-09-04 17:46:00,91.9,59.5,29.95,SSE,164,0.0,0.0,34,0.00,,CLR,0.00,325.45,VWS V14.01,2013-09-04 22:46:00,
2013-09-04 17:51:00,91.9,58.7,29.95,SSE,164,0.0,0.0,33,0.00,,CLR,0.00,307.05,VWS V14.01,2013-09-04 22:51:00,
2013-09-04 17:56:00,91.9,57.9,29.95,SSE,164,0.0,0.0,32,0.00,,CLR,0.00,184.00,VWS V14.01,2013-09-04 22:56:00,
2013-09-04 18:01:00,91.9,57.9,29.95,SSE,164,0.0,0.0,32,0.00,,CLR,0.00,54.05,VWS V14.01,2013-09-04 23:01:00,
2013-09-04 18:06:00,91.6,58.5,29.95,SSE,153,0.0,1.0,33,0.00,,CLR,0.00,54.05,VWS V14.01,2013-09-04 23:06:00,
2013-09-04 18:11:00,91.4,59.1,29.95,SSE,150,0.0,0.0,34,0.00,,CLR,0.00,52.90,VWS V14.01,2013-09-04 23:11:00,
2013-09-04 18:16:00,91.4,59.1,29.95,SSE,149,0.0,1.0,34,0.00,,CLR,0.00,52.90,VWS V14.01,2013-09-04 23:16:00,
2013-09-04 18:21:00,91.2,58.9,29.95,SE,143,0.0,0.0,34,0.00,,CLR,0.00,46.00,VWS V14.01,2013-09-04 23:21:00,
2013-09-04 18:26:00,91.0,58.8,29.95,SE,143,0.0,0.0,34,0.00,,CLR,0.00,46.00,VWS V14.01,2013-09-04 23:26:00,
2013-09-04 18:31:00,90.8,58.6,29.95,SE,143,0.0,0.0,34,0.00,,CLR,0.00,44.85,VWS V14.01,2013-09-04 23:31:00,
2013-09-04 18:36:00,90.5,59.1,29.95,SE,143,0.0,5.0,35,0.00,,CLR,0.00,42.55,VWS V14.01,2013-09-04 23:36:00,
2013-09-04 18:41:00,90.5,59.1,29.95,SE,143,0.0,1.0,35,0.00,,CLR,0.00,42.55,VWS V14.01,2013-09-04 23:41:00,
2013-09-04 18:46:00,90.5,59.1,29.95,SE,143,0.0,3.0,35,0.00,,CLR,0.00,37.95,VWS V14.01,2013-09-04 23:46:00,
2013-09-04 18:51:00,90.3,59.0,29.95,SE,143,0.0,0.0,35,0.00,,CLR,0.00,36.80,VWS V14.01,2013-09-04 23:51:00,
2013-09-04 18:56:00,90.1,58.8,29.95,SE,143,0.0,1.0,35,0.00,,CLR,0.00,42.55,VWS V14.01,2013-09-04 23:56:00,
2013-09-04 19:01:00,89.9,58.6,29.95,SE,143,0.0,0.0,35,0.00,,CLR,0.00,29.90,VWS V14.01,2013-09-05 00:01:00,
2013-09-04 19:06:00,89.7,58.4,29.95,SE,143,0.0,0.0,35,0.00,,CLR,0.00,28.75,VWS V14.01,2013-09-05 00:06:00,
2013-09-04 19:11:00,89.5,58.3,29.95,SE,143,0.0,1.0,35,0.00,,CLR,0.00,37.95,VWS V14.01,2013-09-05 00:11:00,
2013-09-04 19:16:00,89.3,58.1,29.94,SE,143,0.0,3.0,35,0.00,,CLR,0.00,21.85,VWS V14.01,2013-09-05 00:16:00,
2013-09-04 19:21:00,89.1,57.9,29.94,SE,143,0.0,0.0,35,0.00,,CLR,0.00,20.70,VWS V14.01,2013-09-05 00:21:00,
2013-09-04 19:26:00,88.8,58.4,29.94,SE,143,0.0,1.0,36,0.00,,CLR,0.00,16.10,VWS V14.01,2013-09-05 00:26:00,
2013-09-04 19:31:00,88.6,59.0,29.95,SE,143,0.0,0.0,37,0.00,,CLR,0.00,13.80,VWS V14.01,2013-09-05 00:31:00,
2013-09-04 19:36:00,88.4,58.8,29.95,SE,143,0.0,0.0,37,0.00,,CLR,0.00,10.35,VWS V14.01,2013-09-05 00:36:00,
2013-09-04 19:41:00,88.2,60.1,29.95,SE,143,0.0,0.0,39,0.00,,CLR,0.00,8.05,VWS V14.01,2013-09-05 00:41:00,
2013-09-04 19:46:00,88.0,60.0,29.95,SE,143,0.0,0.0,39,0.00,,CLR,0.00,0.00,VWS V14.01,2013-09-05 00:46:00,
2013-09-04 19:51:00,87.6,60.3,29.95,SE,143,0.0,0.0,40,0.00,,CLR,0.00,0.00,VWS V14.01,2013-09-05 00:51:00,
2013-09-04 19:56:00,87.4,60.1,29.95,SE,143,0.0,0.0,40,0.00,,CLR,0.00,0.00,VWS V14.01,2013-09-05 00:56:00,
2013-09-04 20:01:00,87.2,60.7,29.95,SE,143,0.0,0.0,41,0.00,,CLR,0.00,0.00,VWS V14.01,2013-09-05 01:01:00,
2013-09-04 20:06:00,86.8,60.3,29.95,SE,143,0.0,0.0,41,0.00,,CLR,0.00,0.00,VWS V14.01,2013-09-05 01:06:00,
2013-09-04 20:11:00,86.3,60.5,29.95,SE,143,0.0,0.0,42,0.00,,CLR,0.00,0.00,VWS V14.01,2013-09-05 01:11:00,
2013-09-04 20:16:00,86.1,60.3,29.95,SE,143,0.0,1.0,42,0.00,,CLR,0.00,0.00,VWS V14.01,2013-09-05 01:16:00,
2013-09-04 20:21:00,85.9,60.2,29.95,SE,143,0.0,0.0,42,0.00,,CLR,0.00,0.00,VWS V14.01,2013-09-05 01:21:00,
2013-09-04 20:26:00,85.5,60.5,29.95,SE,143,0.0,0.0,43,0.00,,CLR,0.00,0.00,VWS V14.01,2013-09-05 01:26:00,
2013-09-04 20:31:00,85.1,60.1,29.96,SE,143,0.0,0.0,43,0.00,,CLR,0.00,0.00,VWS V14.01,2013-09-05 01:31:00,
2013-09-04 20:36:00,84.7,59.8,29.96,SE,143,0.0,0.0,43,0.00,,CLR,0.00,0.00,VWS V14.01,2013-09-05 01:36:00,
2013-09-04 20:41:00,84.5,59.6,29.96,SE,143,0.0,0.0,43,0.00,,CLR,0.00,0.00,VWS V14.01,2013-09-05 01:41:00,
2013-09-04 20:46:00,84.3,59.4,29.96,SE,143,0.0,0.0,43,0.00,,CLR,0.00,0.00,VWS V14.01,2013-09-05 01:46:00,
2013-09-04 20:51:00,84.1,59.9,29.96,SE,143,0.0,0.0,44,0.00,,CLR,0.00,0.00,VWS V14.01,2013-09-05 01:51:00,
2013-09-04 20:56:00,83.9,59.7,29.96,SE,143,0.0,0.0,44,0.00,,CLR,0.00,0.00,VWS V14.01,2013-09-05 01:56:00,
2013-09-04 21:01:00,83.8,59.6,29.97,SE,143,0.0,0.0,44,0.00,,CLR,0.00,0.00,VWS V14.01,2013-09-05 02:01:00,
2013-09-04 21:06:00,83.6,60.0,29.97,SE,143,0.0,0.0,45,0.00,,CLR,0.00,0.00,VWS V14.01,2013-09-05 02:06:00,
2013-09-04 21:11:00,83.4,59.8,29.97,SE,143,0.0,0.0,45,0.00,,CLR,0.00,0.00,VWS V14.01,2013-09-05 02:11:00,
2013-09-04 21:16:00,83.2,60.3,29.97,SE,143,0.0,1.0,46,0.00,,CLR,0.00,0.00,VWS V14.01,2013-09-05 02:16:00,
2013-09-04 21:21:00,83.0,60.1,29.97,SE,143,0.0,0.0,46,0.00,,CLR,0.00,0.00,VWS V14.01,2013-09-05 02:21:00,
2013-09-04 21:26:00,82.8,60.5,29.97,SE,143,0.0,1.0,47,0.00,,CLR,0.00,0.00,VWS V14.01,2013-09-05 02:26:00,
2013-09-04 21:31:00,82.6,60.3,29.98,SE,143,0.0,0.0,47,0.00,,CLR,0.00,0.00,VWS V14.01,2013-09-05 02:31:00,
2013-09-04 21:36:00,82.4,60.2,29.98,SE,143,0.0,0.0,47,0.00,,CLR,0.00,0.00,VWS V14.01,2013-09-05 02:36:00,
2013-09-04 21:41:00,82.2,60.6,29.98,SE,143,0.0,0.0,48,0.00,,CLR,0.00,0.00,VWS V14.01,2013-09-05 02:41:00,
2013-09-04 21:46:00,82.0,60.4,29.98,SE,143,0.0,0.0,48,0.00,,CLR,0.00,0.00,VWS V14.01,2013-09-05 02:46:00,
2013-09-04 21:51:00,82.0,61.0,29.98,SE,143,0.0,0.0,49,0.00,,CLR,0.00,0.00,VWS V14.01,2013-09-05 02:51:00,
2013-09-04 21:56:00,81.8,61.4,29.98,SE,142,0.0,0.0,50,0.00,,CLR,0.00,0.00,VWS V14.01,2013-09-05 02:56:00,
2013-09-04 22:01:00,81.6,61.2,29.98,SE,142,0.0,0.0,50,0.00,,CLR,0.00,0.00,VWS V14.01,2013-09-05 03:01:00,
2013-09-04 22:06:00,81.4,61.5,29.98,SE,142,0.0,0.0,51,0.00,,CLR,0.00,0.00,VWS V14.01,2013-09-05 03:06:00,
2013-09-04 22:11:00,81.2,61.4,29.98,SE,143,0.0,0.0,51,0.00,,CLR,0.00,0.00,VWS V14.01,2013-09-05 03:11:00,
2013-09-04 22:16:00,81.0,61.2,29.99,SE,142,0.0,0.0,51,0.00,,CLR,0.00,0.00,VWS V14.01,2013-09-05 03:16:00,
2013-09-04 22:21:00,80.9,61.6,29.99,SE,143,0.0,0.0,52,0.00,,CLR,0.00,0.00,VWS V14.01,2013-09-05 03:21:00,
2013-09-04 22:26:00,80.7,61.5,29.99,SE,143,0.0,0.0,52,0.00,,CLR,0.00,0.00,VWS V14.01,2013-09-05 03:26:00,
2013-09-04 22:31:00,80.5,61.8,29.99,SE,143,0.0,0.0,53,0.00,,CLR,0.00,0.00,VWS V14.01,2013-09-05 03:31:00,
2013-09-04 22:36:00,80.1,61.4,29.99,SE,142,0.0,0.0,53,0.00,,CLR,0.00,0.00,VWS V14.01,2013-09-05 03:36:00,
2013-09-04 22:41:00,80.1,62.0,29.99,SE,142,0.0,0.0,54,0.00,,CLR,0.00,0.00,VWS V14.01,2013-09-05 03:41:00,
2013-09-04 22:46:00,79.9,61.8,30.00,SE,142,0.0,4.0,54,0.00,,CLR,0.00,0.00,VWS V14.01,2013-09-05 03:46:00,
2013-09-04 22:51:00,79.7,62.1,30.00,SE,142,0.0,0.0,55,0.00,,CLR,0.00,0.00,VWS V14.01,2013-09-05 03:51:00,
2013-09-04 22:56:00,79.6,62.5,30.00,SE,138,0.0,4.0,56,0.00,,CLR,0.00,0.00,VWS V14.01,2013-09-05 03:56:00,
2013-09-04 23:00:00,79.4,62.3,30.00,SE,138,0.0,0.0,56,0.00,,CLR,0.00,0.00,VWS V14.01,2013-09-05 04:00:00,
2013-09-04 23:01:00,79.4,62.3,30.00,SE,138,0.0,0.0,56,0.00,,CLR,0.00,0.00,VWS V14.01,2013-09-05 04:01:00,
2013-09-04 23:06:00,79.2,62.2,30.00,SE,138,0.0,0.0,56,0.00,,CLR,0.00,0.00,VWS V14.01,2013-09-05 04:06:00,
2013-09-04 23:11:00,79.2,62.7,30.00,SE,138,0.0,0.0,57,0.00,,CLR,0.00,0.00,VWS V14.01,2013-09-05 04:11:00,
2013-09-04 23:16:00,79.0,62.5,30.00,SE,138,0.0,4.0,57,0.00,,CLR,0.00,0.00,VWS V14.01,2013-09-05 04:16:00,
2013-09-04 23:21:00,79.0,62.5,30.00,SE,136,3.0,4.0,57,0.00,,CLR,0.00,0.00,VWS V14.01,2013-09-05 04:21:00,
2013-09-04 23:26:00,78.8,62.8,30.00,SE,135,0.0,4.0,58,0.00,,CLR,0.00,0.00,VWS V14.01,2013-09-05 04:26:00,
2013-09-04 23:31:00,78.6,62.6,30.00,SE,135,0.0,0.0,58,0.00,,CLR,0.00,0.00,VWS V14.01,2013-09-05 04:31:00,
2013-09-04 23:36:00,78.6,62.6,30.00,SE,135,0.0,0.0,58,0.00,,CLR,0.00,0.00,VWS V14.01,2013-09-05 04:36:00,
2013-09-04 23:41:00,78.4,62.4,30.00,SE,135,0.0,0.0,58,0.00,,CLR,0.00,0.00,VWS V14.01,2013-09-05 04:41:00,
2013-09-04 23:46:00,78.4,62.4,30.00,SE,135,0.0,0.0,58,0.00,,CLR,0.00,0.00,VWS V14.01,2013-09-05 04:46:00,
2013-09-04 23:51:00,78.3,62.3,30.00,SE,135,0.0,0.0,58,0.00,,CLR,0.00,0.00,VWS V14.01,2013-09-05 04:51:00,
2013-09-04 23:56:00,78.3,62.8,30.00,SE,135,2.0,2.0,59,0.00,,CLR,0.00,0.00,VWS V14.01,2013-09-05 04:56:00,